Location: *
(46.3500°N, 10.9000°E)
Time: 21:59:25
(UTC+00:00)

Explorer 7 - Pass Details

Date: 24 April 2021
Orbit: 484 x 677 km, 50.3° (Epoch: 05 May)

Event Time Altitude Azimuth Distance (km) Brightness Sun altitude
Rises 00:09:05 0° 290° (WNW) 2,814 - -29.5°
Reaches altitude 10° 00:11:30 10° 280° (W) 1,945 - -29.4°
Maximum altitude 00:15:25 31° 219° (SW) 1,109 - -29.2°
Drops below altitude 10° 00:19:32 10° 158° (SSE) 2,035 - -29.0°
Sets 00:22:07 0° 148° (SSE) 2,967 - -28.9°
